Aérodrome :
LOGIN :

S'inscrire | Disclaimer

   EN    FR    IT 

 










Légende :    VFR   VFR Marginal   IFR   IFR Intensif   IFR Très Intensif
Visi : 
Plafond : 
>= 8 km
>= 3000ft
5 à 8 km
1000 à 3000 ft
1500m à 5 km
500 à 1000 ft
800 à 1500m
200 à 500 ft
< 800m
< 200 ft
Symboles :   Orages  Brouillard  Fortes neiges  Fortes précipitations  Vent > 20 kt
SIGMETs :   Divers  Orages  Givrage  Turbulence  Onde Orograph.  Cendres Volcan.






- Altitude de l'aérodrome : 21 ft
- Code IATA : VST


ESOW - Stockholm Västerås

DERNIER METAR :
  • 271750Z AUTO 36005KT 4400 -SN BKN026/// BKN043/// OVC059/// M02/M04 Q0998

METARs EXPIRÉS :
  • 271720Z AUTO 35006KT 8000 -SN BKN028/// OVC041/// M02/M04 Q0998
  • 271650Z 36006KT 3300 -SN VV031 M02/M04 Q0998 R01/490233
  • 271620Z 36007KT 4500 -SN VV021 M01/M04 Q0998 R01/610195
  • 271550Z 36008KT 5000 -SN VV026 M01/M04 Q0998 R01/610195
  • 271520Z 36009KT 8000 -SN BKN009 OVC025 M01/M03 Q0998 R01/610195

Prévision TAF périmée.



MET'MAP, la Météo Aéronautique d'un coup d'oeil ! - Copyright ORBIFLY Décembre 2007 - Disclaimer

ORBIFLY MET'MAP TEAM :

Programmation & Développement : Alexandra Zaïnal
Sur une idée originale de : Baudouin d'Aumeries
Assistance à la programmation : Marc-Olivier Méhu
Soutien technique & logistique : Manuel Goepfert

Contact : metmap@orbifly.com




SOURCES & CREDITS :

   NOAA